Tracking 19827 objects as of 22-Aug-2019
HD Live streaming from Space Station
objects crossing your sky now

OPS 9333 (IDSCS 18)

Track OPS 9333 (IDSCS 18) now!
OPS 9333 (IDSCS 18) is classified as:


NORAD ID: 2864
Int'l Code: 1967-066C
Perigee: 33,069.3 km
Apogee: 33,572.5 km
Inclination: 3.4 °
Period: 1,311.6 minutes
Semi major axis: 39691 km
RCS: 0.1584 m2 (medium)
Launch date: July 1, 1967
Source: United States (US)
Launch site: AIR FORCE EASTERN TEST RANGE (AFETR)
aabbcc
Your satellite tracking list
Your tracking list is empty




NASA's NSSDC Master Catalog

Two Line Element Set (TLE):
1  2864U 67066C   19233.35142816 -.00000102 +00000-0 +00000-0 0  9997
2  2864 003.3559 278.6988 0063383 004.7527 044.6528 01.09786712104187
Source of the keplerian elements: AFSPC